This is the latest recevied weather packets stored in our database for station/object LKCS. If no packets are shown the sender has not sent any weather packets the latest 10 day(s).
| Time | Temp. | Humidity | Pressure | Rain* | Wind** | Luminosity | Snow |
|---|---|---|---|---|---|---|---|
| 1788305551 | 13.89° C | 76% | 1022 hPa | - | - | - | - |
| 1788303761 | 13.89° C | 76% | 1022 hPa | - | - | - | - |
| 1788301951 | 13.89° C | 76% | 1022 hPa | - | - | - | - |
| 1788300164 | 12.78° C | 82% | 1022 hPa | - | - | - | - |
| 1788298351 | 13.89° C | 76% | 1022 hPa | - | - | - | - |
| 1788296567 | 15° C | 72% | 1022 hPa | - | - | - | - |
| 1788294751 | 13.89° C | 76% | 1022 hPa | - | - | - | - |
| 1788292961 | 15° C | 72% | 1022 hPa | - | - | - | - |
| 1788291151 | 16.11° C | 63% | 1022 hPa | - | - | - | - |
| 1788289360 | 16.11° C | 63% | 1021 hPa | - | - | - | - |
| 1788287558 | 16.11° C | 67% | 1021 hPa | - | - | - | - |
| 1788285759 | 17.78° C | 59% | 1021 hPa | - | - | - | - |
| 1788283952 | 21.11° C | 49% | 1021 hPa | - | - | - | - |
| 1788282168 | 22.22° C | 43% | 1020 hPa | - | - | - | - |
| 1788280358 | 22.22° C | 43% | 1020 hPa | - | - | - | - |
| 1788278560 | 22.78° C | 40% | 1021 hPa | - | - | - | - |
| 1788276758 | 22.22° C | 43% | 1021 hPa | - | - | - | - |
| 1788274959 | 22.22° C | 43% | 1021 hPa | - | - | - | - |
| 1788273157 | 22.78° C | 40% | 1021 hPa | - | - | - | - |
| 1788271359 | 22.78° C | 40% | 1021 hPa | - | - | - | - |
| 1788269559 | 22.78° C | 43% | 1021 hPa | - | - | - | - |
| 1788267786 | 22.78° C | 43% | 1021 hPa | - | - | - | - |
| 1788265985 | 22.22° C | 46% | 1021 hPa | - | - | - | - |
| 1788264194 | 22.22° C | 46% | 1021 hPa | - | - | - | - |
| 1788262386 | 22.22° C | 43% | 1021 hPa | - | - | - | - |
* Rain since midnight (hover to see other rain measurements)
** Current wind speed in m/s (hover to see current wind gust speed)